Simultaneous Nadir Overpasses (SNOs) Predictions

Prediction of SNOs between LANDSAT-8 and METOP-B Satellite Orbit:

Table of predicted SNOs for the next 14.0 days since TLE Epoch: 4/24/2021
Index Date (LANDSAT-8) Time (LANDSAT-8) Lat,Lon (LANDSAT-8) SZA (LANDSAT-8 ) Date (METOP-B) Time (METOP-B) Lat,Lon (METOP-B) SZA (METOP-B ) Distance(km) Time Diff (sec)
1 04/25/2021 05:52:12 81.06, 130.35 69.81 04/25/2021 05:51:36 81.05, 130.20 69.77 2.81 36
2 04/25/2021 06:41:38 -81.08, -61.71 110.16 04/25/2021 06:42:14 -81.08, -61.53 110.12 3.11 36
3 04/28/2021 01:26:25 81.05,-163.37 68.90 04/28/2021 01:26:00 81.05,-163.32 68.90 0.95 25
4 04/28/2021 02:15:51 -81.07, 4.60 111.07 04/28/2021 02:16:39 -81.07, 4.61 111.04 0.46 48
5 04/30/2021 21:00:38 81.06, -96.77 68.07 04/30/2021 21:00:25 81.05, -96.86 68.05 1.78 13
6 04/30/2021 21:50:04 -81.08, 71.23 111.89 04/30/2021 21:51:04 -81.08, 71.10 111.88 2.26 60
7 05/03/2021 16:34:51 81.07, -30.19 67.27 05/03/2021 16:34:49 81.07, -30.05 67.28 2.50 2
8 05/03/2021 17:24:17 -81.09, 137.82 112.69 05/03/2021 17:25:28 -81.09, 137.95 112.65 2.24 71
9 05/06/2021 11:19:39 -81.03,-131.98 113.61 05/06/2021 11:18:35 -81.03,-131.97 113.64 0.33 64



Historial Predications of SNOs between LANDSAT-8 and METOP-B
